Cloud_Cover
5 5 0 0 0 0 0 0 0 0 0 6 0 40 75 11 0 0 0 0 0 50 96 3 0 25 100 100 100 77 5 86 100 100 17 82 100 100 100 95 66 98 96 12 6
5 5 5 1 0 0 0 0 0 0 0 0 0 4 4 1 0 0 0 0 0 9 98 2 99 100 100 46 86 86 48 100 64 85 72 100 100 100 100 97 5 4 35 65 90
5 5 5 0 1 5 4 5 0 23 74 4 5 5 94 10 0 0 0 1 0 0 11 100 25 68 95 31 41 99 94 100 76 34 100 100 100 100 100 93 10 100 99 100 100
5 5 5 1 5 0 0 14 7 93 27 5 5 5 5 5 1 0 3 2 5 0 0 97 10 15 73 36 75 86 78 97 100 92 100 100 100 100 99 79 99 100 100 84 41
6 77 2 26 6 5 5 62 100 100 85 5 5 5 99 10 0 0 0 0 2 0 0 97 87 52 100 99 81 74 100 88 100 98 100 100 100 100 96 52 100 100 100 99 100
14 5 5 30 17 7 19 64 98 100 100 6 5 5 5 0 0 0 5 2 0 0 0 40 70 72 71 100 99 100 85 100 100 100 74 100 100 100 100 70 98 100 100 100 100
5 44 98 100 51 6 33 5 96 100 43 5 5 4 2 2 0 0 5 3 0 5 5 35 100 28 5 100 94 100 100 100 100 100 100 100 100 59 53 95 99 100 100 100 100
5 100 100 88 5 12 29 5 5 91 7 5 5 4 7 4 0 0 2 0 0 0 0 0 100 13 94 100 100 100 100 100 100 100 100 100 99 100 52 64 100 95 100 100 100
98 87 100 81 94 65 37 5 5 5 5 6 5 18 100 2 0 0 5 0 1 0 0 5 5 44 100 100 100 100 100 100 100 100 100 100 75 77 100 99 99 100 100 100 100
100 100 100 100 98 72 62 5 5 33 16 5 7 6 13 0 0 0 17 0 0 0 2 5 27 100 100 100 100 100 100 100 100 100 87 100 88 100 100 100 100 100 100 100 98
80 100 100 100 100 98 46 5 4 4 5 5 7 6 5 0 0 0 84 2 29 2 4 40 100 100 100 100 99 100 100 100 100 87 93 100 100 100 85 100 100 100 90 100 100
76 100 100 100 100 99 32 68 5 5 6 10 48 5 10 0 0 0 56 0 6 16 100 90 100 100 100 100 100 100 100 100 100 100 100 100 100 100 100 100 100 100 100 100 100
100 100 100 100 100 69 96 27 5 5 5 55 52 6 3 0 0 0 5 1 91 100 100 82 97 100 100 100 100 100 85 100 78 98 100 100 100 100 100 100 100 100 100 100 100
100 100 100 100 98 100 83 12 5 5 5 99 18 4 2 0 2 2 81 3 85 99 100 96 100 100 100 100 100 100 62 90 100 38 100 100 100 100 100 100 100 100 100 100 100
100 82 100 100 100 100 27 5 5 6 92 22 5 1 0 0 5 19 24 2 91 100 34 100 100 98 100 100 92 100 100 32 100 100 100 100 86 100 99 99 100 60 5 5 6
100 100 100 100 100 48 37 8 56 64 92 8 5 4 0 0 5 81 0 0 93 97 70 100 100 100 100 98 100 100 100 100 100 100 100 100 100 100 97 98 98 100 30 5 5
100 100 100 100 100 92 100 94 99 100 24 25 5 0 0 4 0 3 23 3 100 95 100 100 100 98 68 100 100 100 100 100 100 100 100 100 100 95 84 34 29 16 5 3 5
100 100 100 100 100 100 100 100 66 100 7 28 5 5 32 11 5 5 4 2 50 34 99 63 100 96 100 100 100 100 100 100 100 100 85 62 48 91 5 4 3 5 8 5 0
100 100 100 100 100 100 100 100 98 72 66 96 25 13 69 36 38 3 0 5 18 8 100 100 90 100 97 77 100 100 87 92 52 54 5 5 5 0 5 24 38 45 4 0 0
100 100 100 100 100 100 100 89 100 100 80 96 32 5 96 26 36 5 2 6 41 77 99 89 99 100 100 100 100 100 100 58 20 4 3 13 41 100 80 4 0 0 0 0 0
100 100 100 100 100 100 100 100 96 100 85 97 70 14 66 74 8 88 2 32 99 100 85 98 100 100 100 100 100 100 58 3 0 41 56 3 88 10 0 0 0 0 0 0 0
100 100 100 100 100 100 100 100 100 39 77 100 98 82 10 100 45 92 2 5 5 6 100 99 100 100 82 93 94 47 34 55 7 2 4 0 0 2 0 0 0 0 0 0 0
100 100 100 100 99 88 100 100 100 100 100 100 24 5 20 28 100 94 99 51 95 43 39 100 85 25 6 24 1 1 17 5 4 63 0 19 0 0 0 0 0 0 0 0 0
100 100 100 92 100 58 80 100 100 100 100 96 46 2 44 72 100 100 100 69 39 100 100 2 4 0 0 0 95 70 9 4 5 4 0 0 0 5 0 0 0 3 1 0 0
100 26 77 100 70 100 100 100 100 100 100 67 5 2 5 100 100 100 90 6 53 65 80 0 1 3 5 5 89 0 53 68 6 18 3 0 0 1 0 12 6 5 5 21 4
100 50 27 99 100 92 57 100 100 100 100 6 41 5 7 100 100 84 17 6 5 5 0 5 5 5 4 0 0 1 0 0 5 0 0 0 4 0 0 5 5 72 6 1 5
83 10 93 5 16 3 4 100 88 100 10 36 5 41 54 97 100 83 93 79 15 6 5 5 5 0 0 0 0 3 0 0 0 0 0 0 4 1 0 6 91 3 0 5 5